www.pogodaiklimat.ru

Погода и климат >> Архив погоды >> Россия >> Приморский край >> Лазо


ПОГОДА в Лазо

  • Прогноз погоды в Лазо
  • Монитор погоды в Лазо

АРХИВ ПОГОДЫ в Лазо

Время (UTC), дата Ветер
(напр.,м/с)
 
Видим.   Явления Облачность Т
(С)
Тd
(С)
f
(%)
Тe
(С)
Тes
(С)
Комфортность P
(гПа)
Po
(гПа)
Тmin
(С)
Tmax
(С)
R
(мм)
R24
(мм)
S
(см)
21 11.01 С 1 50 км ясно -15.5 -22.5 55 -18 -18 1025.8 993.2 -15.5
00 12.01 В 1
{7}
ясно 60 994.7
03 12.01 штиль 0 ясно 21 993.3
06 12.01 Ю 1 ясно 10 990.7
09 12.01 В 1 ясно 32 993.3
12 12.01 С 1
{3}
ясно 53 994.7
15 12.01 штиль 0 ясно 69 994.7
18 12.01 штиль 0 ясно 81 996.0
21 12.01 штиль 0 ясно 88 996.0
00 13.01 штиль 0
{2}
ясно 82 996.0
03 13.01 штиль 0 ясно 47 993.3
06 13.01 Ю 1 ясно 37 993.3
09 13.01 штиль 0 ясно 57 993.3
12 13.01 штиль 0
{5}
ясно 79 994.7
15 13.01 штиль 0 ясно 90 994.7
18 13.01 штиль 0 ясно 88 994.7
21 13.01 штиль 0 ясно 85 994.7
00 14.01 штиль 0
{3}
ясно 85 994.7
03 14.01 ЮЗ 1 ясно 53 992.0
06 14.01 ЮЗ 1 ясно 49 990.7
09 14.01 штиль 0 50 км 7 баллов -3.0 -9.2 62 -4 -4 1023.1 992.0 +1.9
12 14.01 С 1
{5}
9 баллов 68 990.7
15 14.01 СВ 1 20 км 10 баллов -7.4 -10.7 77 -10 -10 1022.3 990.7
18 14.01 штиль 0 10 баллов 80 986.7
21 14.01 СВ 1 20 км 10 баллов -7.2 -9.7 82 -10 -10 1016.7 985.3 -7.9
00 15.01 СВ 1
{3}
20 км 10 баллов -6.9 -8.8 86 -9 -9 1013.9 982.7
03 15.01 СЗ 3 10 баллов 58 978.7
06 15.01 С 5
{11}
10 баллов 48 980.0
09 15.01 СЗ 4
{13}
9 баллов 47 982.7
12 15.01 СЗ 5
{14}
ясно 40 985.3
15 15.01 С 2 ясно 46 986.7
18 15.01 СЗ 3 ясно 47 986.7
21 15.01 С 2
{10}
ясно 43 986.7
00 16.01 СВ 3
{13}
50 км ясно -15.0 -25.5 40 -22 -21 1020.4 988.0 -17.1
03 16.01 СЗ 5
{14}
2 балла 41 985.3
06 16.01 СЗ 3
{12}
50 км 7 баллов -9.1 -18.6 46 -15 -14 1014.2 982.7
09 16.01 З 1 50 км 1 балл -11.2 -22.1 40 -13 -13 1014.5 982.7 -8.7
12 16.01 С 1
{14}
50 км 4 балла -15.4 -22.0 57 -18 -18 1013.6 981.3
15 16.01 СЗ 2 50 км 6 баллов -9.7 -19.6 44 -14 -14 1012.9 981.3
18 16.01 СЗ 5
{12}
2 балла 48 980.0
21 16.01 СЗ 4
{15}
50 км 4 балла -14.4 -22.7 49 -22 -22 1012.1 980.0 -15.4
00 17.01 СЗ 4
{15}
50 км 7 баллов -16.3 -26.7 40 -24 -24 1013.7 981.3 -16.3
03 17.01 СЗ 5
{16}
50 км 7 баллов -17.1 -30.5 30 -26 -26 1015.2 982.7
06 17.01 СЗ 6
{17}
50 км 2 балла -16.1 -31.5 25 -26 -25 1015.1 982.7
09 17.01 СЗ 4
{16}
50 км 2 балла -17.1 -30.5 30 -25 -25 1017.9 985.3 -14.4
12 17.01 СЗ 4
{17}
50 км ясно -17.2 -30.6 30 -25 -25 1019.4 986.7
15 17.01 С 3
{12}
50 км ясно -17.2 -30.6 30 -24 -24 1020.7 988.0
18 17.01 СЗ 3 50 км ясно -16.8 -28.6 35 -24 -24 1020.7 988.0
21 17.01 С 4
{11}
50 км ясно -15.9 -26.6 39 -24 -24 1020.6 988.0 -17.4
00 18.01 С 3
{13}
50 км ясно -13.5 -25.0 37 -20 -19 1021.6 989.3
03 18.01 СВ 2 ясно 26 988.0
06 18.01 СЗ 3 50 км ясно -5.6 -23.4 23 -10 -9 1020.6 989.3
09 18.01 С 2 ясно 30 990.7
12 18.01 С 1
{10}
ясно 34 992.0
15 18.01 СВ 2 50 км ясно -12.6 -24.9 35 -17 -17 1025.6 993.3

 

Местоположение метеостанции Лазо (Приморский край, Россия): широта 43.40 долгота 133.80 высота над уровнем моря 245 м.

В архиве по умолчанию представлена погода в Лазо за последнюю неделю. Архивные данные за месяц целиком и за предыдущие месяцы, начиная с января 2011 года, Вы можете получить, выбрав интересующий диапазон дат из раскрывающегося списка и нажав кнопку "Ввод!".


*Определитесь, кто Вы:
робот инопланетянин человек

Внимание! Время в таблицах - всемирное. Для получения местного времени необходимо прибавить поправку, которая равна 10 ч.

Смотрите также архив погоды в соседних городах и на ближайших метеорологических станциях:

Погода в Лучегорске (Приморский край, Россия) (47 км)
Погода в Преображении (Приморский край, Россия) (56 км)
Погода в Партизанске (Приморский край, Россия) (71 км)
Погода в Чугуевке (Приморский край, Россия) (83 км)
Погода в Анучино (Приморский край, Россия) (90 км)
Погода в Находке (Приморский край, Россия) (105 км)
Погода в Многоудобном (Приморский край, Россия) (108 км)
Погода в Ольге (Приморский край, Россия) (127 км)
Погода в Кавалерово (Приморский край, Россия) (135 км)
Погода в Дальнегорске (Приморский край, Россия) (144 км)

Пояснения к столбцам:

Ветер - указаны скорость ветра в м/с - средняя за 10 мин, порывы в срок и между сроками (в фигурных скобках) и направление, откуда дует ветер: С - северный, СВ - северо-восточный, В - восточный, ЮВ - юго-восточный, Ю - южный, ЮЗ - юго-западный, З - западный, СЗ - северо-западный.
Видимость - горизонтальная дальность видимости в метрах или километрах. При видимости от 1 до 10 км при отсутствии осадков обычно наблюдается дымка, при ухудшении видимости до 1 км и менее - туман. В сухую погоду видимость может ухудшаться дымом, пылью или мглою.
Явления - указаны атмосферные явления, наблюдавшиеся в срок или в последний час перед сроком; фигурными скобками обозначены явления, наблюдавшиеся между сроками (за 1-3 часа до срока); квадратными скобками обозначены град или гололедные отложения с указанием их диаметра в мм.
Облачность - указаны через наклонную черту общая и нижняя облачность в баллах и высота нижней границы облаков в метрах; квадратными скобками обозначены формы облаков: Ci - перистые, Cs - перисто-слоистые, Cc - перисто-кучевые, Ac - высококучевые, As - высокослоистые, Sc - слоисто-кучевые, Ns - слоисто-дождевые, Cu - кучевые, Cb - кучево-дождевые. Подробнее классификацию облаков см. в Атласе облаков (PDF).
T - Температура воздуха - температура, измеренная на высоте 2 м над землей.
Td - Температура точки росы - температура, при понижении до которой содержащийся в воздухе водяной пар достигнет насыщения.
f - Относительная влажность воздуха - влажноcть воздуха, измеренная на высоте 2 м над землей.
Te - Эффективная температура - температура, которую ощущает одетый по сезону человек в тени. Характеристика душности погоды. При расчете учитывается влияние влажности воздуха и скорости ветра на теплоощущения человека.
Tes - Эффективная температура на солнце - температура, которую ощущает человек, с поправкой на солнечный нагрев. Характеристика знойности погоды. Зависит от высоты солнца над горизонтом, облачности и скорости ветра. Ночью, в пасмурную погоду, а также при ветре 12 м/с и более поправка равна нулю.
P - Атмосферное давление - приведенное к уровню моря атмосферное давление.
Po - Атмосферное давление - измеренное на уровне метеостанции атмосферное давление.
Tmin - Минимальная температура - минимум температуры воздуха на высоте 2 м над землей.
Tmax - Максимальная температура - максимум температуры воздуха на высоте 2 м над землей.
R - Количество осадков - Количество выпавших осадков за период времени, мм. При наведении курсора мыши на число - период времени, за который выпало указанное количество осадков.
R24 - Количество осадков - Количество выпавших осадков за 24 часа, мм.
S - Снежный покров - Высота снежного покрова, см. При наведении курсора мыши на число - состояние снежного покрова и степень покрытия местности в баллах.